Regional Weather Roundup
Issued by NWS

Home | Current Version | Previous Version | Graphics & Text | Print | Product List | Glossary On
Versions: 1 2 3 4 5 6 7 8 9 10 11 12 13 14 15 16 17 18 19 20 21 22 23 24 25 26 27 28 29 30 31 32 33 34 35 36 37 38 39 40 41 42 43 44 45 46 47 48 49 50
000
ASUS43 KLOT 050200
RWRIL

ILLINOIS REGIONAL WEATHER ROUNDUP
NATIONAL WEATHER SERVICE CHICAGO/ROMEOVILLE IL
900 PM CDT TUE AUG 04 2015

NOTE: "FAIR" INDICATES FEW OR NO CLOUDS BELOW 12,000 FEET WITH NO
SIGNIFICANT WEATHER AND/OR OBSTRUCTIONS TO VISIBILITY.

* THESE STATIONS ARE NOT UNDER NWS QUALITY CONTROL. THEY ALSO MAY NOT
  REPORT WEATHER SUCH AS PRECIPITATION OR FOG.

ILZ001-002-007-009-015-016-024-050300-
NORTHWEST ILLINOIS

CITY           SKY/WX    TMP DP  RH WIND       PRES   REMARKS
MOLINE         MOCLDY    72  63  73 CALM      30.01R
STERLING*      PTCLDY    66  61  82 CALM      29.99R
$$

ILZ003-004-008-010-011-017-018-050300-
NORTH CENTRAL ILLINOIS

CITY           SKY/WX    TMP DP  RH WIND       PRES   REMARKS
ROCKFORD       MOCLDY    68  58  70 CALM      30.03R
FREEPORT*      PTCLDY    63  57  82 CALM      30.04R
$$

ILZ005-006-012>014-019>023-050300-
NORTHEAST ILLINOIS

CITY           SKY/WX    TMP DP  RH WIND       PRES   REMARKS
CHICAGO-OHARE  MOCLDY    74  53  48 N3        30.01R
CHICAGO-MIDWAY MOCLDY    76  59  55 E10       30.01R
AURORA         PTCLDY    65  59  81 NW3       30.02R
JOLIET*        PTCLDY    67  59  75 CALM      30.01R
WAUKEGAN       PTCLDY    64  59  83 CALM      30.00R
DUPAGE AIRPORT MOCLDY    69  57  65 CALM      30.01R
WHEELING       MOCLDY    71  58  63 E3        30.02R
ROMEOVILLE*    PTCLDY    70  55  58 W6        30.01R
NORTHERLY ISL    N/A     72  59  63 E6          N/A
$$

LMZ740>746-050300-
SOUTHERN LAKE MICHIGAN

STATION/POSITION SKY/WX   TEMP    WIND        PRES    VSBY  WAVE
                          AIR SEA DIR/SP/G                  HT/PER
                          (F)     (DEG/KT/KT) (MB)    (MI)  (FT/S)
HARRISON CRIB              72      80/ 12/ 13   N/A
BURNHAM HARBOR             72      60/  8/ 10   N/A
CALUMET HARBOR             73      10/  3/  5   N/A
BURNS HARBOR               75      40/  6/  8 1015.6R
MICHIGAN CITY              73      20/ 11/ 13   N/A
MICHIGAN CITY 6N           74 74   60/ 10/ 14   N/A           1
ST. JOSEPH                 73 74   70/ 10/ 12   N/A           1/ 2
$$

ILZ025>027-034>036-040-047-049-050-058-095>099-050300-
WEST-CENTRAL ILLINOIS

CITY           SKY/WX    TMP DP  RH WIND       PRES   REMARKS
QUINCY         CLOUDY    70  66  87 NE7       30.00R
MACOMB*        CLOUDY    70  66  87 CALM      30.04R
$$

ILZ028>032-037-038-041>044-048-051>054-059>061-050300-
CENTRAL ILLINOIS

CITY           SKY/WX    TMP DP  RH WIND       PRES   REMARKS
DECATUR        MOCLDY    73  63  70 N3        30.01R
PEORIA         MOCLDY    74  63  68 CALM      30.02R
SPRINGFIELD    MOCLDY    71  65  81 N3        30.00S
TAYLORVILLE    NOT AVBL
$$

ILZ033-039-045-046-055>057-062-063-050300-
EAST-CENTRAL ILLINOIS

CITY           SKY/WX    TMP DP  RH WIND       PRES   REMARKS
CHAMPAIGN      MOCLDY    70  64  81 SW5       30.02R
DANVILLE*      MOCLDY    68  66  93 CALM      29.99R
MATTOON        MOCLDY    71  66  84 S3        30.00S
$$

ILZ079-100>102-050300-
SOUTHWEST ILLINOIS

CITY           SKY/WX    TMP DP  RH WIND       PRES   REMARKS
ALTON          MOCLDY    75  70  83 NE6       29.98S
BELLEVILLE     CLEAR     78  74  87 E2        29.97R HX  81
CAHOKIA*       CLOUDY    80  72  76 CALM      29.97R HX  84
$$

ILZ064>066-069>071-074>076-080>082-084>086-088>090-092>094-050300-
SOUTH-CENTRAL ILLINOIS

CITY           SKY/WX    TMP DP  RH WIND       PRES   REMARKS
CARBONDALE     CLOUDY    76  68  76 SE3       29.98R
MT. VERNON     CLOUDY    72  64  78 S3        29.99S
SALEM*         CLOUDY    77  68  73 CALM      29.99R
$$

ILZ067-068-072-073-078-083-087-091-050300-
SOUTHEAST ILLINOIS

CITY           SKY/WX    TMP DP  RH WIND       PRES   REMARKS
LAWRENCEVILLE  MOCLDY    74  67  78 N8        29.99S
FLORA*         MOCLDY    74  70  89 CALM      29.99S
HARRISBURG*    CLOUDY    73  70  92 CALM      29.99S
ROBINSON*      MOCLDY    70  68  93 N3        30.01R
CARMI*         CLOUDY    69  65  86 CALM      29.98S
$$

ABBREVIATIONS USED IN REMARKS
   TC - TEMPERATURE IN CELSIUS
  WCI - WIND CHILL INDEX
   HX - HEAT INDEX
  VSB - VISIBILITY
$$




USA.gov is the U.S. government's official web portal to all federal, state and local government web resources and services.